Regional Weather Roundup
Issued by NWS

Home | Current Version | Previous Version | Graphics & Text | Print | Product List | Glossary On
Versions: 1 2 3 4 5 6 7 8 9 10 11 12 13 14 15 16 17 18 19 20 21 22 23 24 25 26 27 28 29 30 31 32 33 34 35 36 37 38 39 40 41 42 43 44 45 46 47 48 49 50
000
ASUS43 KDTX 070310
RWRMI
MICHIGAN HOURLY REGIONAL WEATHER ROUNDUP
NATIONAL WEATHER SERVICE DETROIT/PONTIAC MI
1100 PM EDT WED MAY 06 2015

NOTE: "FAIR" INDICATES FEW OR NO CLOUDS BELOW 12,000 FEET WITH NO
SIGNIFICANT WEATHER AND/OR OBSTRUCTION TO VISIBILITY.

MIZ047>049-052>055-059>063-066>070-074>076-081>083-070400-
SOUTHEAST LOWER MICHIGAN

CITY           SKY/WX    TMP DP  RH WIND       PRES   REMARKS
ADRIAN         CLEAR     58  55  90 SE3       30.19R
ALMA           CLEAR     57  53  86 CALM      30.16S
ANN ARBOR      CLEAR     58  56  93 CALM      30.18R
BAD AXE        CLEAR     51  41  69 CALM      30.18F
CARO           CLEAR     56  51  85 CALM      30.17R
DETROIT CITY   CLEAR     61  55  81 S3        30.18S
DETROIT        PTCLDY    60  55  83 CALM      30.19R
FLINT          CLEAR     64  56  75 S6        30.17R
GROSSE ILE     CLEAR     54  52  94 S3        30.18R FOG
HILLSDALE      CLEAR     60  59  97 E7        30.18S FOG
HOWELL         CLEAR     63  59  87 S6        30.18R

CITY           SKY/WX    TMP DP  RH WIND       PRES   REMARKS
JACKSON        CLEAR     61  57  87 SE6       30.18R
LAMBERTVILLE   CLEAR     55  52  88 CALM      30.18S FOG
LANSING        CLEAR     65  59  81 S7        30.17R
LAPEER         FAIR      55  54  94 CALM      30.18S
MASON          CLEAR     62  59  91 S5        30.18R
MONROE         CLEAR     55  54  94 CALM      30.17S FOG
MT. CLEMENS    CLEAR     58  56  92 S3        30.16S
PONTIAC        PTCLDY    63  56  78 S3        30.17S
PORT HOPE        N/A     50  40  68 SE6       30.17S
PORT HURON     CLEAR     50  46  87 CALM      30.19F FOG
TRI CITIES     CLEAR     57  51  80 NE5       30.17R
MIDLAND        FAIR      56  50  79 E5        30.16R
TROY           CLEAR     64  59  84 SE3       30.20R
SAGINAW HB     CLEAR     55  50  82 CALM      30.16S
$$
MIZ043>046-050>051-056>058-064>065-071>073-077>080-070400-
SOUTHWEST LOWER MICHIGAN

CITY           SKY/WX    TMP DP  RH WIND       PRES   REMARKS
BATTLE CREEK   CLEAR     67  60  78 SE9       30.16R
BENTON HARBOR  PTCLDY    68  61  78 E7        30.09S
BIG RAPIDS     CLEAR     65  57  75 CALM      30.14R
COLDWATER      CLEAR     62  58  87 E7        30.16S FOG
FREMONT        FAIR      67  58  74 SE6       30.12R
HOLLAND        CLEAR     67  61  81 E5        30.12R
GRAND RAPIDS   PTCLDY    67  60  78 SE9       30.13R
IONIA          FAIR      64  60  84 SE8       30.14S
KALAMAZOO      PTCLDY    68  60  75 SE7       30.14R
LUDINGTON      CLEAR     56  52  88 CALM      30.11S
MARSHALL       CLEAR     63  59  88 E6        30.16R
MOUNT PLEASANT CLEAR     61  52  71 E3        30.16R
MUSKEGON       PTCLDY    67  60  78 SE7       30.11S
SOUTH HAVEN    PTCLDY    69  61  75 SE6       30.10S
$$
MIZ016>042-070400-
NORTHERN LOWER MICHIGAN

CITY           SKY/WX    TMP DP  RH WIND       PRES   REMARKS
ALPENA         CLEAR     49  43  80 SE3       30.17S
BEAVER ISLAND  CLEAR     49  41  73 E3        30.13S
BELLAIRE       PTCLDY    56  50  82 CALM      30.12S
CADILLAC       PTCLDY    65  56  72 SE7       30.14R
CHARLEVOIX     CLEAR     56  40  55 CALM      30.15S
FRANKFORT      PTCLDY    59  47  66 CALM      30.10S
GAYLORD        CLEAR     61  50  67 S7        30.15R
GRAYLING       CLEAR     62  50  64 SE6       30.16R
HARBOR SPRINGS CLEAR     57  44  62 NE5       30.13S
HOUGHTON LAKE  CLEAR     61  49  64 SE6       30.16R
MANISTEE       PTCLDY    54  46  76 E3        30.12S
OSCODA         CLEAR     49  42  78 CALM      30.18S
PELLSTON       CLEAR     54  42  64 CALM      30.14R
ROGERS CITY    CLEAR     55  44  65 SE6       30.16S
TRAVERSE CITY  PTCLDY    54  41  61 CALM      30.11R
$$
MIZ007>008-015-070400-
EASTERN UPPER MICHIGAN

CITY           SKY/WX    TMP DP  RH WIND       PRES   REMARKS
KINROSS        CLEAR     54  43  66 SE10      30.15S
MACKINAC ISLAN CLEAR     43  37  80 E9        30.14S
NEWBERRY       CLEAR     54  40  57 SE5       30.12F
S. S. MARIE    CLEAR     54  41  61 E6        30.15S
MUNISING         N/A     60  33  36 S7        30.09S
$$
MIZ004>006-011>014-085-070400-
CENTRAL UPPER MICHIGAN

CITY           SKY/WX    TMP DP  RH WIND       PRES   REMARKS
MANISTIQUE     CLEAR     51  40  66 SE7       30.11S
ESCANABA       CLEAR     48  37  66 CALM      30.10F
MENOMINEE      MOCLDY    50  45  81 E3        30.09F
SAWYER-GWINN   CLEAR     55  48  75 S9        30.10S
$$
MIZ001>003-009>011-084-070400-
WESTERN UPPER MICHIGAN

CITY           SKY/WX    TMP DP  RH WIND       PRES   REMARKS
IRON MOUNTAIN  PTCLDY    57  49  74 SE7       30.08S
HOUGHTON       PTCLDY    57  38  48 E8        30.03S
COPPER HARBOR    N/A     57  36  45 SW15G22   30.03S
IRONWOOD       MOCLDY    66  57  72 SE9       29.96R
$$

ABBREVIATIONS USED IN REMARKS
   TC - TEMPERATURE IN CELSIUS
  WCI - WIND CHILL INDEX
   HX - HEAT INDEX
  VSB - VISIBILITY



USA.gov is the U.S. government's official web portal to all federal, state and local government web resources and services.